This demonstration page uses our WeatherBlox Daily Observations layout. Learn more.

Left ArrowRight Arrow

39.51506, -84.39828

Hourly Observations for January 24, 2022

Temp ( °F °C ) Dew Point ( °F °C ) Humidity (%) Winds ( mph kmh ) Pressure ( in mb ) Visibility ( mi km ) Precip ( " mm )
12:15 am 00:15 Clear 12 -11 10 -12.5 89 89 Calm 30.06 1018 10 16 0.00 0.00
12:35 am 00:35 Clear 14 -10.2 11 -11.7 89 89 NW 3 6 30.05 1018 10 16 0.00 0.00
12:55 am 00:55 Clear 13 -10.6 10 -12 90 90 Calm 30.06 1018 10 16 0.00 0.00
1:15 am 01:15 Clear 12 -11 10 -12.5 89 89 Calm 30.05 1017 10 16 0.00 0.00
1:35 am 01:35 Clear 13 -10.4 11 -11.9 89 89 Calm 30.03 1017 10 16 0.00 0.00
1:55 am 01:55 Clear 13 -10.6 10 -12.2 88 88 Calm 30.02 1017 10 16 0.00 0.00
2:15 am 02:15 Clear 14 -10.2 11 -11.7 89 89 Calm 30.01 1016 10 16 0.00 0.00
2:35 am 02:35 Clear 14 -10.2 11 -11.6 90 90 Calm 30.01 1016 10 16 0.00 0.00
2:55 am 02:55 Clear 14 -10.1 11 -11.6 89 89 Calm 30.01 1016 10 16 0.00 0.00
3:15 am 03:15 Clear 14 -10 11 -11.5 89 89 Calm 30.01 1016 10 16 0.00 0.00
3:35 am 03:35 Clear 14 -9.8 12 -11.3 89 89 Calm 30.00 1016 10 16 0.00 0.00
3:55 am 03:55 Clear 15 -9.6 12 -11.1 89 89 Calm 29.99 1016 10 16 0.00 0.00
4:15 am 04:15 Clear 15 -9.5 12 -10.9 90 90 Calm 29.99 1016 10 16 0.00 0.00
4:35 am 04:35 Mostly Cloudy 15 -9.2 13 -10.7 89 89 Calm 29.97 1015 10 16 0.00 0.00
4:55 am 04:55 Cloudy 16 -8.7 13 -10.4 88 88 Calm 29.97 1015 10 16 0.00 0.00
5:15 am 05:15 Mostly Cloudy 17 -8.4 14 -10.2 87 87 Calm 29.95 1014 10 16 0.00 0.00
5:35 am 05:35 Partly Cloudy 17 -8.2 14 -10 87 87 Calm 29.95 1014 10 16 0.00 0.00
5:55 am 05:55 Partly Cloudy 18 -7.8 14 -10.1 84 84 Calm 29.95 1014 10 16 0.00 0.00
6:15 am 06:15 Mostly Cloudy 20 -6.7 14 -10 78 78 SW 5 7 29.93 1014 10 16 0.00 0.00
6:35 am 06:35 Mostly Cloudy 20 -6.6 15 -9.6 79 79 WSW 6 9 29.92 1013 10 16 0.00 0.00
6:55 am 06:55 Mostly Cloudy 21 -6.2 15 -9.6 77 77 SW 10 17 29.91 1013 10 16 0.00 0.00
7:15 am 07:15 Cloudy 21 -6 14 -10 74 74 SW 14 22 29.89 1012 10 16 0.00 0.00
7:35 am 07:35 Cloudy 22 -5.8 13 -10.6 69 69 SW 13 20 29.89 1012 10 16 0.00 0.00
7:55 am 07:55 Cloudy 22 -5.5 12 -10.9 66 66 SW 14 22 29.87 1012 10 16 0.00 0.00
8:15 am 08:15 Cloudy 22 -5.3 12 -11 65 65 SW 9 15 29.86 1011 10 16 0.00 0.00
8:35 am 08:35 Cloudy 23 -4.9 12 -11 63 63 SW 10 17 29.86 1011 10 16 0.00 0.00
8:55 am 08:55 Cloudy 24 -4.7 12 -11.1 61 61 WSW 13 20 29.85 1011 10 16 0.00 0.00
9:15 am 09:15 Cloudy with Light Snow 24 -4.5 12 -11 61 61 SW 12 19 29.85 1011 10 16 0.00 0.00
9:35 am 09:35 Cloudy with Light Snow 24 -4.6 13 -10.6 63 63 SW 14 22 29.84 1010 10 16 0.00 0.00
9:55 am 09:55 Cloudy with Light Snow 24 -4.5 14 -9.8 67 67 SW 13 20 29.83 1010 7 11 0.00 0.00
10:15 am 10:15 Cloudy with Light Snow 25 -3.9 16 -9 68 68 WSW 12 19 29.83 1010 10 16 0.00 0.00
10:35 am 10:35 Cloudy with Light Snow 25 -3.9 17 -8.3 72 72 SW 15 24 29.82 1010 4 6 0.00 0.00
10:55 am 10:55 Cloudy with Light Snow 25 -3.9 19 -7 79 79 SW 14 22 29.81 1009 3 5 0.00 0.00
11:15 am 11:15 Cloudy with Light Snow 26 -3.2 20 -6.5 78 78 SW 13 20 29.79 1009 7 11 0.00 0.00
11:35 am 11:35 Cloudy with Light Snow 27 -2.7 20 -6.6 75 75 SW 12 19 29.78 1009 10 16 0.00 0.00
11:55 am 11:55 Cloudy 28 -2.1 20 -6.7 71 71 SSW 15 24 29.76 1008 10 16 0.00 0.00
12:15 pm 12:15 Cloudy 29 -1.6 20 -6.8 68 68 SW 14 22 29.75 1007 10 16 0.00 0.00
12:35 pm 12:35 Cloudy 31 -0.7 20 -6.5 65 65 WSW 9 15 29.75 1007 10 16 0.00 0.00
12:55 pm 12:55 Partly Cloudy 33 0.6 21 -6.2 61 61 SW 9 15 29.73 1007 10 16 0.00 0.00
1:15 pm 13:15 Mostly Cloudy 36 2.1 22 -5.8 56 56 WSW 13 20 29.72 1006 10 16 0.00 0.00
1:35 pm 13:35 Mostly Cloudy 37 2.5 22 -5.7 55 55 WSW 20 31 29.70 1006 10 16 0.00 0.00
1:55 pm 13:55 Cloudy 37 2.8 22 -5.4 55 55 WSW 18 30 29.70 1006 10 16 0.00 0.00
2:15 pm 14:15 Cloudy 38 3.1 22 -5.4 54 54 WSW 16 26 29.69 1005 10 16 0.00 0.00
2:35 pm 14:35 Cloudy with Light Rain 37 3 24 -4.3 59 59 WSW 17 28 29.69 1005 10 16 0.00 0.00
2:55 pm 14:55 Cloudy with Light Rain 37 2.5 27 -2.6 69 69 WSW 13 20 29.70 1006 7 11 0.00 0.00
3:15 pm 15:15 Cloudy with Light Rain 36 2 30 -1.2 80 80 W 13 20 29.70 1006 7 11 0.00 0.00
3:35 pm 15:35 Cloudy with Light Rain 37 2.5 33 0.5 87 87 W 13 20 29.70 1006 10 16 0.00 0.00
3:55 pm 15:55 Cloudy with Light Rain 36 2.1 33 0.8 91 91 W 10 17 29.71 1006 7 11 0.00 0.00
4:15 pm 16:15 Cloudy with Light Rain 35 1.9 34 1 94 94 W 8 13 29.72 1006 7 11 0.00 0.00
4:35 pm 16:35 Cloudy with Light Rain 35 1.7 34 1 95 95 W 8 13 29.73 1007 7 11 0.00 0.00
4:55 pm 16:55 Cloudy with Light Rain 35 1.6 34 1.1 97 97 W 5 7 29.73 1007 7 11 0.00 0.00
5:15 pm 17:15 Cloudy with Light Rain 35 1.4 34 1 97 97 WNW 3 6 29.74 1007 7 11 0.01 0.25
5:35 pm 17:35 Cloudy with Light Rain 34 1.3 34 1 98 98 W 5 7 29.75 1007 5 8 0.02 0.51
5:55 pm 17:55 Cloudy with Drizzle 34 1.3 34 1 98 98 WSW 7 11 29.75 1007 7 11 0.02 0.51
6:15 pm 18:15 Cloudy with Mist and Fog 34 1.3 34 1 98 98 W 5 7 29.76 1008 7 11 0.00 0.00
6:35 pm 18:35 Cloudy 34 1.3 34 1 98 98 WSW 5 7 29.77 1008 7 11 0.00 0.00
6:55 pm 18:55 Cloudy 35 1.4 34 1.1 98 98 WSW 5 7 29.78 1008 7 11 0.00 0.00
7:15 pm 19:15 Cloudy 35 1.5 34 1.1 97 97 WSW 7 11 29.78 1008 7 11 0.00 0.00
7:35 pm 19:35 Cloudy 35 1.6 34 1.2 97 97 WSW 7 11 29.79 1009 7 11 0.00 0.00
7:55 pm 19:55 Cloudy with Mist and Fog 34 1.3 34 1 98 98 W 6 9 29.80 1009 7 11 0.00 0.00
8:15 pm 20:15 Cloudy with Mist and Fog 34 1.3 34 1 98 98 WSW 7 11 29.81 1010 7 11 0.00 0.00
8:35 pm 20:35 Cloudy with Mist and Fog 35 1.5 34 1.2 98 98 WSW 7 11 29.82 1010 7 11 0.00 0.00
8:55 pm 20:55 Cloudy 35 1.6 34 1.2 97 97 W 7 11 29.83 1010 7 11 0.00 0.00
9:15 pm 21:15 Cloudy with Mist and Fog 35 1.6 34 1.2 97 97 W 6 9 29.83 1010 7 11 0.00 0.00
9:35 pm 21:35 Cloudy with Mist and Fog 35 1.5 34 1.1 97 97 W 5 7 29.84 1011 7 11 0.00 0.00
9:55 pm 21:55 Cloudy 35 1.9 34 1.2 95 95 NNW 10 17 29.85 1011 7 11 0.00 0.00
10:15 pm 22:15 Cloudy 34 1.2 32 0 92 92 N 13 20 29.87 1012 7 11 0.00 0.00
10:35 pm 22:35 Cloudy with Drizzle 32 0 31 -0.8 94 94 N 13 20 29.89 1012 4 6 0.00 0.00
10:55 pm 22:55 Cloudy with Mist and Fog 32 -0.2 30 -1.1 94 94 N 12 19 29.91 1013 5 8 0.00 0.00
11:15 pm 23:15 Cloudy with Mist and Fog 32 -0.2 30 -1 94 94 NNW 8 13 29.91 1013 5 8 0.00 0.00
11:35 pm 23:35 Cloudy 31 -0.4 29 -1.6 92 92 N 12 19 29.92 1013 7 11 0.00 0.00
11:55 pm 23:55 Cloudy 31 -0.7 28 -2.3 89 89 NNW 12 19 29.93 1013 10 16 0.00 0.00

Powered by AerisWeather